Torna al catalogo

O3B FM20

AttivoComunicazioniMEO
NORAD 44112·PAYLOAD·🇱🇺 Luxembourg

Lanciato Apr 4, 2019 da Guiana Space Centre

Loading…

Prossimi Passaggi (prossime 24 ore)

TLE

AggiornatoSource: CelesTrak SupGP

Epoca: Sep 13, 2026, 19:59 UTC

1 44112C 19020A   26256.83333333  .00000000  00000+0  00000+0 0  2568
2 44112   0.0543 353.7126 0002234 177.4231 314.6580  5.00115783    17

Traccia O3B FM20 in tempo reale con AllMySat

Download on the App Store